Location: Lafig�re
(44.4503°N, 4.0357°E)
Time: 16:29:54
(UTC+00:00)

Cosmos 2082 Rocket - Pass Details

Date: 24 September 2020
Orbit: 834 x 853 km, 71.0° (Epoch: 25 October)

Event Time Altitude Azimuth Distance (km) Brightness Sun altitude
Rises 20:56:52 0° 332° (NNW) 3,392 6.2 -34.1°
Reaches altitude 10° 20:59:19 10° 329° (NNW) 2,455 5.3 -34.4°
Enters shadow 21:02:59 41° 315° (NW) 1,202 3.3 -34.9°
